Weather reports worldwide

Advertisment
Estaca de Bares, Spain (8004): temperature & dewpoint: 18.04.2018 06:00:00 - 24.04.2018 06:00:00 (CEST)Estaca de Bares, Spain (8004): wind speed & gusts: 18.04.2018 06:00:00 - 24.04.2018 06:00:00 (CEST)Estaca de Bares, Spain (8004): wind direction: 18.04.2018 06:00:00 - 24.04.2018 06:00:00 (CEST)Estaca de Bares, Spain (8004): reduced air pressure: 18.04.2018 06:00:00 - 24.04.2018 06:00:00 (CEST)Estaca de Bares, Spain (8004): visibility: 18.04.2018 06:00:00 - 24.04.2018 06:00:00 (CEST)Estaca de Bares, Spain (8004): sunshine duration: 18.04.2018 06:00:00 - 24.04.2018 06:00:00 (CEST)Estaca de Bares, Spain (8004): precipitation: 18.04.2018 06:00:00 - 24.04.2018 06:00:00 (CEST)
Date & Time tt [°C] td [°C] ff [km/h] ff [kn] fx [km/h] fx [kn] dd ppp [hPa] vv [km] sd [min] rr [mm]
24.04.2018 06:00:00 12,9 11,3 29 16 40 21 E 1017,9 3,0 0 0,0
24.04.2018 05:00:00 12,9 11,1 29 16 43 23 E 1018,1 3,3 0 0,0
24.04.2018 04:00:00 12,9 11,0 34 18 44 24 E 1018,2 3,5 0 0,0
24.04.2018 03:00:00 12,9 11,0 34 18 44 24 E 1018,8 3,6 0 0,0
24.04.2018 02:00:00 12,9 11,0 31 17 40 21 E 1019,3 3,8 0 -
24.04.2018 01:00:00 12,9 11,0 35 19 46 25 E 1019,4 3,9 0 0,0
24.04.2018 00:00:00 12,9 11,0 34 18 43 23 E 1019,6 3,8 0 0,0
23.04.2018 23:00:00 13,0 10,9 29 16 43 23 E 1020,0 3,9 0 0,0
23.04.2018 22:00:00 12,8 10,5 33 18 45 25 E 1019,7 3,9 0 0,0
23.04.2018 21:00:00 12,8 10,3 34 18 48 26 E 1018,8 4,0 0 0,0
23.04.2018 20:00:00 12,9 10,0 32 18 47 25 E 1018,7 4,2 0 -
23.04.2018 19:00:00 13,4 10,2 31 17 42 23 E 1019,0 4,2 0 0,0
23.04.2018 18:00:00 13,2 10,0 31 17 48 26 E 1019,5 4,2 0 0,0
23.04.2018 17:00:00 13,3 10,3 35 19 46 25 E 1019,3 4,1 0 0,0
23.04.2018 16:00:00 13,4 10,4 33 18 46 25 E 1019,6 3,9 0 0,0
23.04.2018 15:00:00 13,3 10,3 30 16 42 23 E 1019,9 4,2 0 0,0
23.04.2018 14:00:00 13,4 10,4 32 18 42 23 E 1020,1 4,2 0 -
23.04.2018 13:00:00 13,0 10,5 32 18 39 21 ENE 1020,6 4,1 0 0,0
23.04.2018 12:00:00 12,5 10,4 31 17 40 21 ENE 1020,6 3,9 0 0,0
23.04.2018 11:00:00 12,4 10,2 31 17 43 23 ENE 1020,2 4,0 12 0,0
23.04.2018 10:00:00 11,7 9,9 29 16 37 20 ENE 1020,4 4,2 0 0,0
23.04.2018 09:00:00 11,8 9,9 29 16 35 19 ENE 1019,8 3,8 0 0,0
23.04.2018 08:00:00 12,1 9,7 18 10 31 17 E 1019,5 4,0 0 -
23.04.2018 07:00:00 11,9 9,3 11 6 18 10 E 1019,2 4,1 0 0,0
23.04.2018 06:00:00 12,0 9,0 12 6 19 11 ESE 1018,9 4,4 0 0,0
23.04.2018 05:00:00 11,9 9,3 11 6 18 10 ESE 1018,9 4,5 0 0,0
23.04.2018 04:00:00 11,6 9,2 14 8 17 9 SE 1018,8 4,5 0 0,0
23.04.2018 03:00:00 11,5 8,9 14 8 16 9 ESE 1019,1 4,7 0 0,0
23.04.2018 02:00:00 11,5 8,9 13 7 16 8 ESE 1019,2 4,9 0 -
23.04.2018 01:00:00 11,7 9,0 13 7 17 9 ESE 1019,2 4,6 0 0,0
23.04.2018 00:00:00 11,6 9,0 13 7 16 8 ESE 1019,0 4,5 0 0,0
22.04.2018 23:00:00 11,8 8,8 9 5 17 9 E 1018,8 4,4 0 0,0
22.04.2018 22:00:00 12,0 9,0 14 7 17 9 ENE 1018,4 4,0 0 0,0
22.04.2018 21:00:00 12,4 9,0 8 4 12 7 NE 1017,6 4,4 16 0,0
22.04.2018 20:00:00 14,3 9,7 5 3 12 7 N 1016,8 4,1 60 -
22.04.2018 19:00:00 13,8 10,2 3 2 15 8 NNE 1016,5 3,9 2 0,0
22.04.2018 18:00:00 13,2 9,7 7 4 23 13 NNW 1016,4 4,0 0 0,0
22.04.2018 17:00:00 13,7 10,2 15 8 29 15 NW 1015,9 3,8 0 0,0
22.04.2018 16:00:00 13,5 10,9 22 12 31 17 WNW 1015,8 3,6 0 0,0
22.04.2018 15:00:00 13,3 11,0 14 7 28 15 WNW 1015,5 3,2 1 0,0
22.04.2018 14:00:00 13,3 11,2 22 12 40 22 WNW 1015,5 3,1 0 -
22.04.2018 13:00:00 12,9 11,0 29 16 37 20 WNW 1015,3 2,9 0 0,0
22.04.2018 12:00:00 12,9 11,1 27 15 33 18 WNW 1015,5 2,7 0 0,0
22.04.2018 11:00:00 12,7 11,1 30 16 39 21 WNW 1015,3 2,5 0 0,0
22.04.2018 10:00:00 12,7 11,2 28 15 36 19 WNW 1014,9 1,4 0 0,0
22.04.2018 09:00:00 12,9 11,4 30 16 34 19 WNW 1014,7 0,1 0 0,0
22.04.2018 08:00:00 12,4 10,8 5 3 23 13 WNW 1014,5 0,7 0 -
22.04.2018 07:00:00 12,5 10,9 18 10 28 15 W 1013,9 0,8 0 0,0
22.04.2018 06:00:00 12,5 10,8 24 13 42 23 W 1014,2 0,1 0 0,0
22.04.2018 05:00:00 13,0 10,9 32 17 41 22 WNW 1014,3 0,6 0 0,0
22.04.2018 04:00:00 14,1 10,6 32 17 38 20 W 1014,3 2,7 0 0,0
22.04.2018 03:00:00 15,7 10,9 26 14 33 18 WSW 1014,7 3,7 0 0,0
22.04.2018 02:00:00 15,0 11,2 23 12 34 19 W 1014,8 3,9 0 -
22.04.2018 01:00:00 14,8 11,3 24 13 31 17 W 1014,9 3,7 0 0,0
22.04.2018 00:00:00 14,5 11,2 28 15 31 17 W 1014,5 3,6 0 0,0
21.04.2018 23:00:00 13,7 11,2 17 9 25 13 W 1014,5 3,7 0 0,0
21.04.2018 22:00:00 13,3 11,0 14 8 25 14 W 1014,2 2,6 0 0,0
21.04.2018 21:00:00 14,4 11,3 13 7 17 9 WSW 1013,9 2,6 0 0,0
21.04.2018 20:00:00 15,3 11,7 10 5 12 6 W 1013,4 3,0 0 -
21.04.2018 19:00:00 14,6 11,9 4 2 13 7 SSE 1013,0 2,8 0 0,0
21.04.2018 18:00:00 14,7 11,7 6 3 11 6 SE 1013,1 3,5 41 0,0
21.04.2018 17:00:00 16,9 14,3 4 2 20 11 SW 1013,1 3,0 9 0,0
21.04.2018 16:00:00 13,4 11,2 18 10 24 13 E 1013,0 0,3 0 0,0
21.04.2018 15:00:00 13,5 11,2 21 11 26 14 E 1013,2 0,5 3 0,0
21.04.2018 14:00:00 13,8 11,4 17 9 23 12 E 1013,5 0,3 46 -
21.04.2018 13:00:00 13,5 11,3 20 11 25 14 E 1013,8 0,7 16 0,0
21.04.2018 12:00:00 13,6 11,4 16 9 20 11 E 1014,1 0,6 47 0,0
21.04.2018 11:00:00 13,9 12,1 8 5 25 13 ESE 1014,0 2,9 60 0,0
21.04.2018 10:00:00 12,0 10,6 20 11 31 17 ESE - - 27 0,0
21.04.2018 09:00:00 11,3 9,7 23 12 27 15 ESE 1014,0 0,2 7 0,0
21.04.2018 08:00:00 11,1 9,6 19 11 25 14 ESE 1013,8 0,3 0 -
21.04.2018 07:00:00 11,2 9,7 14 8 26 14 ESE 1013,8 2,5 0 0,0
21.04.2018 06:00:00 11,9 10,3 22 12 34 18 ESE 1013,9 2,3 0 0,0
21.04.2018 05:00:00 12,2 10,6 25 14 37 20 ESE 1014,2 1,9 0 0,0
21.04.2018 04:00:00 12,4 10,6 29 16 39 21 ESE 1014,3 1,9 0 0,0
21.04.2018 03:00:00 12,5 10,8 32 17 42 23 ESE 1014,5 2,0 0 0,0
21.04.2018 02:00:00 12,7 10,9 31 17 45 24 ESE 1015,2 2,2 0 -
21.04.2018 01:00:00 12,7 10,8 32 18 41 22 ESE 1015,5 2,2 0 0,0
21.04.2018 00:00:00 12,8 10,9 28 15 44 24 ESE 1015,9 2,3 0 0,0
20.04.2018 23:00:00 12,6 10,5 29 16 41 22 ESE 1016,2 3,3 0 0,0
20.04.2018 22:00:00 12,5 10,4 33 18 42 23 E 1016,1 3,6 0 0,0
20.04.2018 21:00:00 12,6 10,5 24 13 35 19 E 1016,0 3,2 0 0,0
20.04.2018 20:00:00 12,7 10,4 25 13 32 17 E 1015,8 3,5 0 -
20.04.2018 19:00:00 12,9 10,6 19 11 28 15 E 1016,1 3,0 0 0,0
20.04.2018 18:00:00 13,1 10,6 17 9 25 13 E 1016,4 3,7 0 0,0
20.04.2018 17:00:00 13,2 10,9 18 10 24 13 E 1016,8 2,9 0 0,0
20.04.2018 16:00:00 13,6 11,3 20 11 24 13 E 1017,2 3,1 0 0,0
20.04.2018 15:00:00 13,5 11,2 19 10 22 12 ENE 1017,7 3,1 0 0,0
20.04.2018 14:00:00 12,9 10,8 17 9 24 13 E 1018,5 2,7 0 -
20.04.2018 13:00:00 13,0 11,1 18 10 26 14 E 1018,7 3,0 0 0,0
20.04.2018 12:00:00 12,5 10,8 20 11 24 13 ENE 1018,9 2,9 0 0,0
20.04.2018 11:00:00 12,3 10,8 21 12 27 15 ENE 1019,1 2,4 0 0,0
20.04.2018 10:00:00 12,4 10,8 22 12 27 15 ENE 1019,0 2,9 0 0,0
20.04.2018 09:00:00 12,1 10,6 21 12 30 16 ENE 1019,2 1,5 0 0,0
20.04.2018 08:00:00 12,1 10,6 23 13 33 18 E 1019,4 1,1 0 -
20.04.2018 07:00:00 12,0 10,4 27 15 32 17 ENE 1019,4 2,1 0 0,0
20.04.2018 06:00:00 11,9 10,3 23 13 30 16 E 1019,5 2,0 0 0,0
20.04.2018 05:00:00 12,0 10,4 25 14 31 17 ENE 1019,9 2,2 0 0,0
20.04.2018 04:00:00 12,2 10,6 20 11 29 16 ENE 1020,3 2,6 0 0,0
20.04.2018 03:00:00 12,6 10,9 16 9 31 17 NE 1020,5 3,0 0 0,0
20.04.2018 02:00:00 12,9 11,1 17 9 26 14 NE 1020,5 2,7 0 -
20.04.2018 01:00:00 13,1 11,1 16 9 21 12 ENE 1020,7 2,4 0 0,0
20.04.2018 00:00:00 13,2 11,1 10 6 18 10 NE 1021,0 3,0 0 0,0
19.04.2018 23:00:00 13,3 10,6 15 8 22 12 ENE 1021,1 3,2 0 0,0
19.04.2018 22:00:00 13,5 10,6 19 10 24 13 E 1020,9 3,5 0 0,0
19.04.2018 21:00:00 13,8 10,4 16 8 23 12 E 1020,7 3,5 0 0,0
19.04.2018 20:00:00 14,4 10,2 18 10 22 12 E 1020,5 3,9 24 -
19.04.2018 19:00:00 15,7 10,6 14 8 19 10 E 1020,4 4,2 52 0,0
19.04.2018 18:00:00 16,8 11,1 13 7 22 12 E 1020,2 3,4 60 0,0
19.04.2018 17:00:00 17,0 11,0 13 7 23 12 E 1020,0 3,6 60 0,0
19.04.2018 16:00:00 17,1 11,6 16 8 22 12 E 1020,0 3,9 58 0,0
19.04.2018 15:00:00 16,7 11,4 18 10 26 14 E 1019,8 4,1 57 0,0
19.04.2018 14:00:00 16,8 11,9 19 10 30 16 E 1019,9 3,7 60 -
19.04.2018 13:00:00 16,6 11,8 22 12 31 17 E 1020,3 3,3 60 0,0
19.04.2018 12:00:00 16,8 11,7 18 10 28 15 E 1020,1 3,5 60 0,0
19.04.2018 11:00:00 15,4 10,4 22 12 28 15 E 1019,9 3,5 60 0,0
19.04.2018 10:00:00 14,5 10,5 25 13 29 16 ESE 1019,9 4,2 60 0,0
19.04.2018 09:00:00 14,0 9,4 21 11 25 14 ESE 1020,0 4,5 60 0,0
19.04.2018 08:00:00 12,8 8,7 18 10 21 11 ESE 1019,6 4,0 9 -
19.04.2018 07:00:00 12,5 8,8 13 7 16 9 E 1019,7 3,3 0 0,0
19.04.2018 06:00:00 13,0 8,7 3 1 7 4 E 1020,1 4,1 0 0,0
19.04.2018 05:00:00 13,5 8,8 4 2 8 4 N 1020,6 4,3 0 0,0
19.04.2018 04:00:00 12,9 9,2 7 4 18 10 W 1020,8 3,6 0 0,0
19.04.2018 03:00:00 13,3 9,6 16 9 19 11 WSW 1020,9 2,4 0 0,0
19.04.2018 02:00:00 14,2 9,8 8 4 11 6 W 1020,9 4,1 0 -
19.04.2018 01:00:00 14,4 9,8 7 4 9 5 WSW 1021,0 2,1 0 0,0
19.04.2018 00:00:00 14,6 9,8 8 5 17 9 WSW 1021,0 3,1 0 0,0
18.04.2018 23:00:00 17,4 4,6 8 5 17 9 ESE 1020,8 4,0 0 0,0
18.04.2018 22:00:00 17,3 4,6 15 8 19 10 ESE 1020,2 4,1 0 0,0
18.04.2018 21:00:00 17,5 4,1 16 8 18 10 ESE 1019,4 4,2 43 0,0
18.04.2018 20:00:00 18,7 5,1 14 8 19 10 ESE 1018,9 4,0 60 -
18.04.2018 19:00:00 18,5 5,9 16 9 19 10 ESE 1018,6 3,8 60 0,0
18.04.2018 18:00:00 18,5 6,4 18 10 22 12 ESE 1018,4 3,5 60 0,0
18.04.2018 17:00:00 18,3 7,4 17 9 24 13 ESE 1018,3 3,7 60 0,0
18.04.2018 16:00:00 18,2 8,1 16 9 22 12 ESE 1018,1 3,6 60 0,0
18.04.2018 15:00:00 18,6 7,7 14 7 19 10 ESE 1018,3 3,4 60 0,0
18.04.2018 14:00:00 19,7 6,4 14 8 20 11 E 1018,4 3,7 60 -
18.04.2018 13:00:00 19,6 6,4 13 7 18 10 E 1018,7 3,8 60 0,0
18.04.2018 12:00:00 18,4 9,2 12 6 15 8 E 1019,0 3,8 60 0,0
18.04.2018 11:00:00 18,0 10,2 11 6 16 9 E 1018,7 2,6 60 0,0
18.04.2018 10:00:00 16,4 10,3 2 1 5 3 NNW 1019,5 3,1 60 0,0
18.04.2018 09:00:00 14,6 9,4 4 2 6 4 SSE 1019,6 1,5 60 0,0
18.04.2018 08:00:00 13,5 8,0 4 2 14 8 SW 1019,4 3,6 7 -
18.04.2018 07:00:00 13,3 8,2 5 3 10 6 SW - - 0 0,0
18.04.2018 06:00:00 12,9 7,6 4 2 11 6 W 1019,7 3,9 0 0,0

tt = temperature
td = dewpoint
ff = wind speed
fx = gusts
dd = wind direction
ppp = reduced air pressure
vv = visibility
sd = sunshine duration
rr = precipitation

Next stations